Temp
-6 -6 -5 -5 -5 -5 -5 -5 -5 -5 -5 -4 -4 -4 -4 -4 -4 -4 -4 -5 -5 -5 -5 -5 -5 -5 -5 -5 -5 -5 -5 -5 -6 -6 -6 -6 -6 -6 -6 -6 -6 -6 -6 -7 -7
-6 -6 -5 -5 -5 -5 -5 -5 -5 -5 -4 -4 -4 -4 -4 -4 -5 -5 -5 -5 -5 -5 -5 -5 -5 -5 -5 -5 -5 -5 -5 -5 -5 -5 -6 -6 -6 -6 -7 -7 -6 -6 -6 -7 -7
-6 -6 -5 -5 -5 -5 -5 -5 -5 -5 -5 -4 -4 -4 -4 -4 -5 -5 -5 -5 -5 -5 -5 -5 -5 -6 -6 -6 -6 -6 -6 -5 -6 -6 -6 -6 -6 -6 -7 -8 -6 -6 -6 -6 -6
-6 -6 -6 -6 -6 -5 -5 -5 -5 -5 -5 -4 -4 -5 -5 -5 -5 -5 -5 -5 -5 -5 -6 -6 -6 -6 -6 -6 -6 -6 -6 -6 -6 -6 -6 -6 -7 -7 -7 -8 -7 -7 -7 -7 -7
-6 -6 -6 -6 -5 -5 -5 -5 -5 -5 -5 -5 -5 -5 -5 -5 -5 -5 -6 -6 -6 -6 -6 -6 -7 -7 -7 -7 -7 -7 -7 -7 -7 -7 -6 -6 -7 -6 -7 -7 -7 -7 -7 -7 -7
-6 -6 -6 -6 -5 -5 -5 -5 -5 -5 -5 -5 -5 -5 -5 -5 -5 -6 -6 -6 -6 -7 -7 -7 -7 -7 -7 -7 -7 -7 -7 -7 -8 -7 -7 -7 -7 -7 -7 -8 -8 -8 -8 -8 -8
-6 -6 -6 -6 -5 -5 -5 -5 -5 -5 -5 -5 -5 -6 -6 -6 -6 -6 -6 -6 -7 -7 -7 -7 -8 -8 -8 -8 -8 -7 -7 -8 -8 -8 -8 -8 -7 -8 -8 -8 -8 -8 -8 -8 -8
-6 -6 -6 -5 -5 -5 -5 -5 -5 -5 -6 -6 -6 -6 -6 -6 -6 -7 -7 -7 -8 -8 -8 -8 -8 -8 -8 -8 -8 -9 -9 -8 -9 -9 -9 -9 -8 -8 -9 -9 -8 -9 -9 -9 -9
-6 -6 -6 -6 -6 -6 -6 -6 -6 -6 -6 -6 -6 -7 -7 -7 -7 -7 -7 -8 -8 -8 -8 -9 -9 -9 -9 -9 -9 -9 -9 -9 -9 -9 -9 -9 -9 -9 -9 -9 -9 -9 -9 -9 -9
-6 -6 -6 -7 -6 -6 -6 -6 -6 -6 -6 -7 -7 -7 -7 -8 -8 -8 -8 -8 -9 -9 -9 -9 -9 -9 -9 -10 -9 -9 -9 -9 -9 -9 -9 -9 -9 -9 -9 -9 -10 -10 -10 -10 -10
-6 -7 -7 -7 -6 -7 -7 -7 -7 -7 -7 -7 -8 -8 -8 -9 -9 -9 -9 -9 -10 -10 -10 -10 -10 -10 -10 -10 -10 -10 -10 -10 -10 -10 -10 -10 -9 -10 -10 -10 -10 -10 -10 -11 -11
-7 -7 -6 -6 -7 -7 -6 -6 -6 -7 -8 -7 -8 -9 -9 -9 -9 -10 -10 -10 -11 -10 -10 -10 -10 -11 -11 -11 -11 -10 -10 -10 -10 -11 -10 -10 -10 -10 -11 -11 -11 -12 -12 -11 -12
-7 -7 -7 -7 -7 -7 -7 -7 -7 -7 -7 -9 -9 -9 -10 -10 -10 -10 -11 -11 -11 -11 -11 -11 -11 -10 -10 -11 -11 -11 -11 -11 -11 -11 -11 -11 -10 -10 -12 -12 -12 -13 -13 -13 -13
-8 -8 -8 -7 -8 -8 -8 -8 -8 -8 -8 -9 -10 -10 -10 -11 -11 -11 -11 -11 -11 -11 -11 -11 -11 -11 -11 -11 -12 -11 -12 -12 -12 -12 -12 -12 -11 -11 -13 -13 -14 -15 -15 -15 -15
-9 -8 -8 -8 -8 -9 -9 -9 -9 -9 -9 -9 -10 -10 -11 -11 -11 -11 -11 -11 -11 -11 -11 -11 -11 -11 -11 -12 -13 -13 -13 -14 -14 -14 -14 -13 -15 -13 -13 -14 -15 -15 -16 -16 -16
-9 -9 -9 -9 -9 -9 -9 -10 -10 -10 -10 -10 -11 -11 -11 -12 -12 -12 -12 -12 -12 -12 -12 -12 -12 -12 -12 -14 -14 -15 -15 -15 -16 -16 -15 -15 -16 -14 -15 -15 -16 -16 -16 -17 -16
-10 -9 -10 -10 -10 -10 -10 -10 -10 -11 -11 -11 -12 -12 -12 -12 -12 -12 -12 -12 -12 -12 -12 -13 -13 -13 -14 -15 -16 -16 -17 -17 -17 -17 -17 -16 -17 -16 -16 -16 -16 -16 -17 -17 -17
-9 -9 -10 -10 -10 -10 -10 -10 -11 -11 -12 -12 -12 -12 -12 -12 -12 -12 -12 -12 -12 -13 -14 -14 -14 -15 -15 -15 -16 -17 -17 -18 -18 -18 -18 -18 -17 -17 -17 -17 -17 -17 -17 -17 -18
-11 -10 -11 -11 -11 -11 -11 -11 -11 -12 -12 -12 -12 -12 -12 -12 -13 -13 -13 -13 -13 -14 -15 -15 -15 -16 -16 -17 -18 -18 -18 -19 -19 -19 -19 -18 -18 -18 -18 -18 -18 -18 -18 -17 -18
-10 -10 -11 -12 -12 -11 -11 -11 -12 -12 -12 -12 -12 -13 -13 -13 -14 -15 -15 -14 -15 -15 -16 -16 -17 -17 -18 -18 -18 -19 -19 -19 -19 -19 -19 -19 -19 -19 -19 -19 -18 -18 -18 -18 -18
-12 -11 -11 -11 -12 -12 -12 -12 -12 -13 -13 -13 -13 -14 -14 -14 -15 -16 -16 -16 -16 -17 -18 -18 -18 -18 -19 -19 -20 -20 -20 -20 -20 -20 -20 -20 -19 -19 -20 -20 -20 -20 -19 -19 -18
-12 -11 -11 -11 -12 -11 -12 -12 -13 -13 -13 -14 -14 -14 -15 -16 -17 -17 -17 -18 -18 -18 -19 -19 -20 -20 -20 -20 -20 -20 -20 -20 -20 -20 -21 -21 -19 -20 -21 -21 -20 -20 -20 -20 -19
-12 -12 -12 -12 -12 -12 -12 -12 -13 -14 -14 -14 -15 -15 -16 -17 -19 -19 -19 -20 -20 -20 -20 -21 -21 -21 -21 -21 -21 -21 -21 -21 -21 -21 -21 -22 -20 -22 -21 -21 -20 -20 -20 -20 -19
-12 -12 -12 -12 -12 -13 -13 -13 -14 -15 -15 -15 -16 -17 -19 -19 -19 -20 -21 -22 -22 -22 -22 -21 -21 -21 -21 -21 -22 -21 -21 -21 -22 -22 -22 -22 -22 -22 -22 -21 -21 -20 -20 -20 -20
-13 -13 -13 -12 -13 -13 -14 -14 -14 -15 -16 -16 -16 -18 -19 -20 -21 -22 -23 -23 -22 -22 -22 -22 -22 -22 -23 -22 -22 -22 -22 -22 -23 -23 -23 -22 -22 -22 -22 -21 -22 -21 -20 -20 -21
-13 -13 -13 -14 -14 -14 -15 -16 -17 -17 -18 -19 -20 -21 -21 -22 -24 -23 -24 -23 -24 -23 -24 -24 -23 -23 -22 -22 -22 -23 -23 -23 -24 -24 -23 -23 -23 -23 -24 -25 -24 -24 -24 -23 -22
-15 -16 -16 -15 -16 -16 -17 -18 -18 -19 -19 -21 -22 -22 -22 -23 -24 -24 -25 -24 -25 -24 -24 -24 -24 -24 -23 -24 -24 -24 -24 -24 -24 -24 -24 -24 -24 -26 -27 -26 -26 -25 -25 -24 -23
Height
5883 5885 5887 5887 5888 5888 5887 5887 5886 5886 5886 5885 5884 5884 5883 5882 5881 5880 5879 5878 5877 5875 5874 5873 5871 5870 5869 5868 5867 5866 5866 5865 5865 5865 5864 5863 5862 5863 5862 5860 5859 5857 5857 5857 5857
5883 5885 5886 5886 5886 5886 5886 5885 5884 5883 5882 5882 5881 5880 5879 5878 5878 5876 5875 5873 5872 5871 5870 5868 5867 5866 5865 5864 5864 5864 5862 5861 5860 5860 5859 5858 5856 5855 5856 5855 5852 5851 5852 5852 5852
5884 5884 5884 5884 5884 5884 5883 5882 5881 5880 5879 5878 5877 5876 5875 5874 5873 5871 5869 5868 5867 5866 5865 5863 5861 5861 5860 5859 5859 5858 5858 5858 5857 5856 5855 5854 5852 5851 5850 5852 5847 5845 5843 5845 5846
5882 5882 5882 5882 5881 5881 5879 5878 5877 5876 5875 5874 5873 5872 5870 5869 5869 5866 5864 5863 5861 5860 5859 5857 5856 5856 5854 5853 5852 5853 5851 5850 5848 5849 5849 5849 5849 5847 5847 5844 5838 5838 5835 5835 5836
5879 5879 5878 5878 5877 5876 5875 5874 5873 5872 5871 5869 5868 5867 5866 5864 5862 5861 5860 5859 5857 5856 5854 5853 5852 5851 5849 5849 5849 5849 5847 5845 5844 5843 5841 5842 5841 5840 5840 5834 5834 5833 5829 5826 5824
5875 5875 5874 5873 5872 5872 5871 5870 5869 5867 5866 5865 5863 5861 5860 5859 5856 5855 5853 5852 5850 5849 5847 5846 5846 5844 5844 5844 5843 5842 5841 5840 5839 5837 5837 5837 5834 5831 5828 5828 5826 5823 5820 5820 5819
5870 5870 5869 5868 5867 5866 5865 5864 5863 5861 5860 5858 5857 5855 5854 5852 5850 5849 5847 5845 5843 5841 5840 5839 5838 5835 5835 5834 5833 5832 5833 5832 5829 5828 5828 5827 5828 5824 5822 5819 5816 5812 5810 5808 5806
5864 5864 5862 5861 5860 5859 5858 5857 5856 5854 5853 5851 5849 5847 5846 5844 5842 5840 5839 5836 5834 5832 5831 5830 5829 5828 5828 5826 5825 5822 5823 5823 5821 5818 5816 5815 5819 5812 5808 5807 5805 5802 5800 5798 5792
5857 5856 5855 5853 5853 5851 5850 5850 5848 5847 5845 5843 5841 5839 5839 5837 5835 5833 5831 5830 5828 5827 5826 5824 5822 5820 5818 5816 5814 5813 5812 5812 5811 5809 5806 5803 5806 5801 5795 5794 5793 5788 5784 5783 5782
5850 5848 5847 5847 5846 5845 5842 5841 5840 5839 5837 5835 5834 5833 5831 5830 5827 5824 5823 5821 5819 5817 5816 5815 5812 5811 5809 5803 5803 5801 5800 5800 5799 5799 5793 5793 5793 5789 5783 5781 5777 5773 5773 5770 5768
5843 5842 5841 5840 5838 5836 5836 5834 5834 5833 5830 5828 5827 5825 5824 5822 5819 5817 5815 5812 5810 5808 5806 5804 5802 5801 5796 5793 5792 5791 5789 5788 5787 5783 5778 5781 5779 5776 5770 5765 5761 5759 5757 5756 5756
5835 5833 5832 5832 5831 5830 5829 5828 5826 5825 5825 5820 5819 5818 5816 5813 5811 5809 5806 5804 5802 5799 5796 5794 5792 5789 5786 5782 5779 5776 5775 5774 5774 5768 5764 5767 5769 5766 5759 5753 5748 5742 5740 5742 5741
5827 5826 5824 5824 5822 5821 5819 5819 5816 5814 5813 5811 5810 5809 5806 5804 5801 5799 5797 5794 5792 5789 5786 5783 5780 5777 5774 5770 5766 5763 5760 5757 5755 5755 5753 5749 5754 5752 5745 5739 5734 5729 5727 5726 5727
5818 5817 5815 5814 5814 5812 5810 5808 5806 5804 5800 5802 5801 5800 5798 5795 5793 5789 5788 5786 5782 5778 5774 5771 5768 5764 5760 5757 5751 5749 5744 5741 5738 5736 5738 5735 5733 5740 5733 5725 5722 5719 5717 5716 5716
5809 5807 5805 5803 5802 5802 5800 5798 5796 5794 5790 5792 5790 5787 5785 5783 5779 5777 5775 5771 5768 5764 5762 5757 5752 5748 5745 5740 5734 5733 5727 5725 5722 5718 5716 5719 5710 5727 5718 5712 5710 5706 5703 5705 5707
5800 5798 5797 5796 5793 5792 5789 5787 5785 5783 5780 5781 5779 5775 5772 5768 5764 5760 5757 5754 5750 5747 5743 5738 5734 5729 5727 5722 5719 5715 5711 5708 5705 5703 5699 5706 5695 5704 5707 5702 5699 5695 5693 5694 5695
5791 5789 5788 5786 5784 5782 5779 5777 5774 5772 5772 5769 5765 5761 5757 5754 5750 5746 5743 5737 5733 5726 5726 5721 5717 5713 5711 5707 5704 5702 5697 5691 5689 5688 5688 5690 5680 5681 5690 5689 5687 5687 5685 5684 5685
5782 5780 5779 5776 5774 5772 5769 5766 5761 5761 5756 5751 5748 5744 5742 5740 5735 5731 5727 5724 5718 5709 5703 5700 5698 5696 5695 5692 5687 5684 5683 5678 5670 5672 5675 5675 5667 5670 5673 5675 5675 5674 5675 5675 5675
5770 5771 5769 5766 5764 5761 5759 5754 5751 5748 5741 5734 5730 5726 5727 5723 5717 5711 5708 5705 5702 5697 5689 5678 5679 5676 5677 5673 5672 5670 5667 5666 5658 5655 5651 5662 5660 5658 5661 5661 5662 5663 5662 5663 5665
5758 5756 5754 5750 5748 5744 5742 5741 5736 5731 5723 5717 5714 5710 5706 5703 5696 5690 5685 5685 5682 5680 5673 5665 5659 5661 5658 5659 5656 5653 5653 5652 5646 5641 5636 5643 5646 5644 5648 5648 5648 5650 5649 5649 5653
5744 5741 5741 5736 5732 5730 5726 5724 5720 5713 5705 5701 5697 5690 5688 5682 5678 5673 5664 5664 5661 5659 5657 5650 5647 5646 5644 5644 5643 5640 5638 5637 5633 5629 5626 5628 5635 5633 5632 5633 5633 5633 5636 5638 5640
5729 5727 5725 5722 5717 5713 5711 5705 5701 5695 5688 5681 5676 5673 5668 5664 5656 5653 5651 5647 5643 5642 5637 5636 5630 5630 5628 5627 5627 5627 5625 5623 5619 5618 5614 5613 5623 5618 5618 5615 5616 5619 5621 5623 5626
5711 5710 5708 5703 5698 5694 5689 5686 5677 5676 5671 5663 5655 5653 5648 5646 5636 5635 5635 5633 5627 5624 5619 5620 5618 5616 5615 5616 5616 5615 5613 5609 5606 5603 5603 5602 5608 5603 5600 5600 5602 5606 5606 5607 5610
5692 5690 5689 5685 5681 5674 5668 5668 5658 5656 5650 5644 5638 5634 5627 5625 5622 5616 5617 5616 5615 5612 5607 5607 5606 5605 5604 5602 5604 5603 5600 5597 5595 5593 5592 5594 5596 5591 5588 5585 5585 5587 5587 5586 5586
5671 5669 5666 5666 5662 5656 5648 5646 5643 5635 5632 5626 5622 5616 5610 5606 5604 5603 5602 5602 5601 5600 5596 5596 5594 5593 5592 5592 5592 5590 5588 5585 5584 5583 5585 5585 5583 5578 5572 5568 5565 5566 5562 5559 5556
5650 5648 5646 5643 5640 5635 5627 5623 5618 5613 5610 5607 5602 5598 5596 5593 5588 5585 5586 5587 5586 5586 5585 5583 5582 5580 5581 5581 5580 5579 5578 5576 5576 5576 5576 5574 5571 5563 5559 5554 5551 5544 5539 5536 5533
5628 5626 5621 5624 5621 5614 5612 5604 5599 5594 5595 5589 5587 5584 5581 5578 5571 5572 5572 5571 5572 5572 5571 5572 5572 5572 5572 5572 5571 5571 5569 5571 5569 5567 5566 5562 5559 5555 5551 5545 5540 5538 5530 5523 5522
Wind_Speed
9 11 6 7 9 11 7 7 7 9 10 13 15 17 18 20 22 22 23 24 24 24 25 25 26 26 25 25 23 20 20 19 17 16 18 17 17 17 20 22 24 25 26 23 21
3 7 10 10 11 9 11 11 12 13 14 16 18 20 22 21 21 23 24 24 25 26 26 26 27 27 28 27 25 22 22 20 20 21 19 21 22 22 19 19 26 29 28 28 26
5 7 10 12 12 14 14 14 15 16 17 18 19 21 23 24 25 25 26 26 27 27 27 27 26 25 26 25 24 22 23 24 25 25 24 25 25 26 25 19 28 30 33 32 31
9 11 13 14 15 15 16 17 18 19 21 23 24 26 27 27 27 27 29 29 28 27 26 26 26 24 24 24 24 22 25 25 27 28 29 30 29 32 30 28 33 34 37 36 34
14 14 15 16 17 18 19 21 23 24 26 27 28 29 29 29 29 30 30 31 31 30 28 27 26 25 26 27 29 29 30 31 31 31 34 34 33 35 30 36 37 38 39 40 40
17 18 19 21 22 23 24 26 28 29 30 30 31 31 31 32 33 33 32 31 31 29 28 27 27 29 30 31 31 32 33 32 29 33 35 35 35 38 41 41 41 40 42 42 41
23 23 24 25 26 27 27 29 30 30 31 32 33 34 34 36 37 36 36 34 32 30 30 31 30 31 30 30 30 32 32 32 32 34 36 38 40 43 45 46 46 47 45 43 41
27 27 28 29 29 30 31 31 32 32 34 35 36 37 38 37 37 36 35 32 30 30 30 31 32 32 31 32 34 35 36 37 39 42 45 47 46 48 48 48 46 46 47 47 48
29 29 29 30 31 33 34 34 35 36 37 38 37 37 35 34 35 36 35 35 33 34 34 33 34 34 34 37 40 42 44 45 47 48 48 47 45 46 49 47 46 48 49 50 53
31 32 33 33 35 36 38 37 37 37 37 38 37 37 36 33 34 34 33 33 34 35 36 38 41 43 44 46 47 48 47 46 45 44 46 46 45 46 48 49 51 53 53 53 55
34 35 35 35 35 35 34 36 37 37 40 39 38 38 36 36 36 34 32 33 33 34 36 39 40 39 41 44 45 45 47 48 47 49 53 50 49 49 51 54 58 61 60 57 57
36 36 37 37 37 38 40 41 43 43 39 44 39 35 38 32 32 34 34 33 34 36 38 39 40 41 43 46 49 51 53 54 53 54 55 53 52 53 56 60 62 62 62 62 60
35 36 38 38 40 42 43 43 45 45 45 39 38 36 31 34 35 35 38 39 41 41 43 45 46 46 47 50 54 56 58 58 58 57 58 58 52 54 57 58 60 60 60 60 61
38 38 40 42 41 42 42 43 44 43 48 46 37 35 34 37 39 40 40 43 45 47 48 50 52 54 55 56 58 57 60 61 61 61 60 61 60 55 56 57 57 57 54 51 51
38 38 39 41 42 40 41 42 44 46 50 46 46 46 48 49 51 53 54 54 53 53 54 58 59 61 61 60 59 58 60 62 63 64 64 63 64 55 57 58 55 55 49 41 38
38 37 37 38 41 42 43 45 47 50 52 51 53 54 54 55 56 59 58 58 59 60 62 63 64 64 63 61 59 58 60 61 62 63 66 60 60 59 55 52 49 46 45 36 31
37 38 38 39 42 44 47 51 53 51 51 54 56 57 59 61 63 63 64 64 65 66 66 66 67 66 64 61 59 59 60 62 62 62 61 55 55 56 48 49 46 37 39 34 32
43 44 47 50 51 51 53 55 57 57 57 59 60 63 64 66 68 68 69 69 69 70 71 69 68 66 65 63 63 62 58 56 54 53 53 52 55 49 41 40 39 32 30 32 31
49 50 51 54 57 59 60 62 61 60 61 65 68 68 68 68 69 70 70 70 70 70 68 69 69 67 63 62 60 56 53 51 51 54 57 55 50 45 40 36 36 31 25 30 33
53 55 56 57 60 63 66 67 66 67 69 71 71 71 71 71 73 74 73 72 70 68 66 68 66 62 60 58 56 52 51 48 49 52 54 51 46 45 40 40 39 38 31 32 34
59 62 65 66 66 70 71 70 71 73 73 74 73 73 73 74 74 72 73 70 67 63 64 61 61 62 60 55 50 50 47 43 48 47 49 50 47 43 42 43 41 41 41 36 33
66 68 70 72 73 76 75 75 75 77 76 76 76 73 72 71 71 69 67 65 65 60 57 59 56 54 52 51 51 48 47 41 46 46 46 47 43 44 39 39 41 42 42 40 40
71 73 75 75 79 80 82 83 81 78 74 76 73 71 68 64 65 63 61 56 54 57 50 46 44 42 40 40 43 41 43 45 43 46 48 43 39 36 39 39 41 41 42 45 47
76 80 82 83 84 84 82 80 79 75 73 73 72 67 64 64 62 59 55 52 48 40 38 39 39 41 41 36 34 34 36 39 42 43 36 32 31 40 43 43 46 45 48 55 57
81 82 83 84 82 80 80 79 76 75 75 74 72 67 66 62 59 55 50 37 42 34 34 37 33 36 45 43 37 35 37 38 32 32 30 32 38 43 47 49 51 53 62 62 54
81 82 81 77 78 78 78 75 73 72 70 65 62 59 59 56 58 56 51 52 56 59 58 48 42 40 40 37 34 36 37 27 23 29 35 39 41 44 43 41 37 38 45 41 39
77 77 77 77 75 75 72 69 70 65 63 58 55 55 52 51 53 52 50 50 45 43 41 36 33 36 35 31 30 23 19 20 29 35 36 37 35 26 17 26 29 32 25 27 26
Wind_Direction
258 239 263 287 298 301 294 299 308 310 312 313 315 315 314 314 315 317 320 320 322 321 319 318 316 314 311 309 307 308 306 306 306 299 300 297 286 281 287 295 294 292 294 297 299
183 205 252 277 291 289 290 299 304 304 308 311 311 313 311 313 317 317 313 313 313 313 313 312 311 309 307 306 302 303 297 297 296 297 292 289 285 286 278 280 287 287 288 291 291
257 247 264 283 285 288 294 302 308 310 309 309 308 307 307 307 307 306 306 307 307 307 308 306 306 305 304 301 298 298 297 299 297 297 296 289 285 287 288 291 284 285 287 287 286
271 269 272 277 284 292 298 300 301 302 302 301 299 299 300 299 301 301 302 305 305 305 305 302 303 302 297 294 290 295 293 290 286 290 290 291 293 291 298 288 280 286 287 287 287
282 280 281 285 291 296 298 298 299 299 297 297 298 300 302 302 303 306 309 309 307 308 308 305 303 299 296 295 294 295 293 290 291 287 284 284 288 288 296 288 293 290 286 283 285
281 283 286 290 294 297 298 299 301 300 300 302 303 303 304 304 304 305 305 303 301 303 301 299 299 296 296 295 296 291 290 290 289 286 285 285 287 287 291 293 290 285 284 286 285
284 287 290 292 294 296 297 298 298 297 298 301 300 299 300 302 302 304 304 303 300 297 295 295 294 291 290 287 288 285 282 282 283 284 285 286 287 290 290 293 291 289 286 283 280
286 289 291 293 296 297 297 297 298 298 298 298 299 300 302 303 304 303 301 297 294 290 291 292 290 288 288 284 282 281 279 281 284 287 289 288 284 284 285 286 285 283 283 281 277
285 287 288 290 292 293 295 297 298 299 299 300 302 304 308 309 310 310 307 302 296 295 293 289 285 283 284 285 281 282 278 280 283 284 286 285 285 284 282 282 278 274 274 277 278
285 287 289 292 294 296 297 298 299 301 302 302 305 307 311 313 310 306 304 300 297 293 288 285 283 284 286 283 282 283 285 285 286 286 282 283 285 282 278 277 271 268 272 273 273
287 289 292 293 294 295 296 298 302 302 303 305 307 309 313 312 309 304 301 295 291 289 287 286 286 288 284 286 290 290 290 290 288 281 282 284 283 279 274 270 270 271 270 271 273
288 290 291 292 295 297 300 301 302 303 304 304 308 311 312 307 307 303 298 294 292 289 287 286 287 284 284 284 287 289 288 287 284 281 284 284 285 282 277 275 273 273 273 272 275
289 290 291 294 296 299 300 302 301 301 302 303 307 309 308 306 301 298 293 293 294 291 290 290 289 288 287 287 285 285 283 281 280 279 282 283 282 280 276 276 276 277 278 279 278
286 289 291 292 295 296 298 299 301 303 299 305 311 313 308 303 300 296 296 293 292 292 291 291 291 291 290 288 285 284 279 279 278 280 281 282 279 276 274 278 280 283 283 281 283
285 287 290 292 295 299 300 303 306 305 302 308 310 309 306 303 302 302 302 300 296 294 294 294 293 291 289 287 283 281 277 276 277 277 277 279 281 275 275 280 286 286 283 283 286
289 290 293 296 296 299 301 303 305 304 305 308 307 304 302 300 300 302 302 301 299 297 296 293 291 289 287 283 282 280 277 276 276 278 279 284 286 276 275 280 285 283 282 289 289
291 292 293 295 297 299 302 304 302 302 306 306 303 300 298 300 301 301 300 298 296 294 292 289 288 286 285 283 283 282 281 280 280 281 285 284 280 281 282 286 282 276 273 285 280
295 296 298 299 299 299 300 300 300 304 304 302 300 299 301 304 302 301 298 296 294 291 290 289 287 287 286 283 284 286 284 280 282 285 286 280 276 282 289 287 275 264 264 268 268
295 296 297 297 298 299 299 299 302 303 300 298 297 298 299 298 295 293 291 290 289 288 288 287 286 285 282 281 283 285 283 283 283 284 283 280 279 279 287 282 271 256 255 254 259
292 293 294 297 298 299 299 300 301 299 296 295 295 296 295 294 292 291 290 290 289 288 286 286 286 284 283 284 283 283 284 284 286 285 281 278 284 287 286 279 269 260 246 245 250
294 296 298 298 297 296 297 298 297 296 295 295 294 293 292 292 290 290 289 289 287 287 286 285 284 285 284 285 284 282 280 285 279 275 280 284 285 286 283 277 267 258 250 250 245
296 297 297 297 298 299 298 297 295 295 296 295 295 293 291 290 289 288 288 286 289 287 286 285 285 285 283 283 280 279 277 282 277 280 280 280 283 282 280 269 264 259 256 253 252
295 296 296 298 299 299 297 297 296 297 296 295 293 292 291 290 289 287 287 286 283 285 284 286 283 283 281 278 278 283 279 278 280 281 285 282 286 278 269 267 269 269 270 271 263
295 296 297 297 297 296 295 296 296 297 294 293 293 292 291 291 289 289 289 287 287 278 276 281 276 280 280 282 281 284 280 277 277 278 275 275 274 278 278 277 275 278 281 281 277
298 299 299 298 296 294 294 295 295 294 293 293 293 292 292 291 288 290 287 272 270 273 279 276 280 281 292 295 295 282 273 271 266 268 271 272 280 282 285 285 283 292 290 285 277
296 297 296 295 294 295 297 298 296 294 294 293 289 287 288 286 283 285 275 276 274 273 285 287 286 280 279 284 285 273 269 268 278 279 278 279 282 286 282 284 294 296 293 288 278
295 294 294 294 295 295 296 294 293 293 291 289 288 286 285 281 280 281 283 282 283 283 283 281 275 278 280 279 269 264 273 284 279 282 285 282 282 273 287 301 308 315 314 293 273